Milford, UT

5:31 AM MDT on July 26, 2017 (GMT -0600)
Milford Municipal

Weather History for KMLF - June, 2013

Change the Weather History Date:

Saturday, June 22, 2013

  Actual Average Record
Temperature  
Mean Temperature 69 °F -  
Max Temperature 84 °F 87 °F 102 °F (2016)
Min Temperature 54 °F 49 °F 43 °F (1998)
Cooling Degree Days 4    
Growing Degree Days 19 (Base 50)    
Moisture  
Dew Point 21 °F    
Average Humidity 16    
Maximum Humidity 31    
Minimum Humidity 4    
Precipitation  
Precipitation 0.00 in - - ()
Sea Level Pressure  
Sea Level Pressure 29.80 in    
Wind  
Wind Speed 10 mph (North)    
Max Wind Speed 14 mph    
Max Gust Speed 21 mph    
Visibility 10 miles    
Events      
Averages and records for this station are not official NWS values.
T = Trace of Precipitation, MM = Missing Value Source: NWS Daily Summary

Daily Weather History Graph

Daily Weather History Graph

Search for Another Location

Airport or City:

Trip Planner

Search our weather history database for the weather conditions in past years. The results will help you decide how hot, cold, wet, or windy it might be!

Date:

Astronomy

Jun. 22, 2013 Rise Set
Actual Time 6:08 AM MDT 8:59 PM MDT
Civil Twilight 5:36 AM MDT 9:31 PM MDT
Nautical Twilight 4:56 AM MDT 10:11 PM MDT
Astronomical Twilight 4:11 AM MDT 10:56 PM MDT
Moon 8:19 PM MDT (6/22) 5:24 AM MDT (6/22)
Length of Visible Light 15h 54m
Length of Day
14h 50m
Waxing Gibbous, 99% of the Moon is Illuminated
Jun 22
Waxing Gibbous
Jun 23
Full
Jun 29
Last Quarter
Jul 8
New
Jul 15
First Quarter

Hourly Weather History & Observations

Time (MDT) Temp. Dew Point Humidity Pressure Visibility Wind Dir Wind Speed Gust Speed Precip Events Conditions
12:52 AM 66.0 °F 19.9 °F 17% 29.75 in 10.0 mi North 10.4 mph 16.1 mph N/A   Clear
1:52 AM 61.0 °F 21.0 °F 21% 29.77 in 10.0 mi North 12.7 mph - N/A   Clear
2:52 AM 57.9 °F 21.0 °F 24% 29.78 in 10.0 mi North 9.2 mph - N/A   Clear
3:52 AM 55.9 °F 21.9 °F 27% 29.79 in 10.0 mi North 9.2 mph - N/A   Clear
4:52 AM 55.0 °F 21.0 °F 27% 29.80 in 10.0 mi North 12.7 mph - N/A   Clear
5:52 AM 55.0 °F 24.1 °F 30% 29.82 in 10.0 mi NNW 13.8 mph - N/A   Clear
6:52 AM 55.0 °F 25.0 °F 31% 29.85 in 10.0 mi North 10.4 mph - N/A   Clear
7:52 AM 59.0 °F 27.0 °F 29% 29.86 in 10.0 mi North 9.2 mph - N/A   Clear
8:52 AM 64.0 °F 27.0 °F 25% 29.86 in 10.0 mi North 9.2 mph - N/A   Clear
9:52 AM 66.9 °F 27.0 °F 22% 29.88 in 10.0 mi North 13.8 mph - N/A   Clear
10:52 AM 71.1 °F 27.0 °F 19% 29.88 in 10.0 mi North 13.8 mph 20.7 mph N/A   Clear
11:52 AM 75.0 °F 25.0 °F 16% 29.87 in 10.0 mi North 12.7 mph 20.7 mph N/A   Clear
12:52 PM 75.9 °F 21.9 °F 13% 29.86 in 10.0 mi North 8.1 mph - N/A   Clear
1:52 PM 79.0 °F 19.9 °F 11% 29.84 in 10.0 mi East 9.2 mph 19.6 mph N/A   Clear
2:52 PM 80.1 °F 19.0 °F 10% 29.82 in 10.0 mi NNW 9.2 mph - N/A   Clear
3:52 PM 82.0 °F 18.0 °F 9% 29.80 in 10.0 mi Variable 6.9 mph - N/A   Clear
4:52 PM 82.9 °F 17.1 °F 9% 29.77 in 10.0 mi Variable 5.8 mph - N/A   Clear
5:52 PM 84.9 °F 17.1 °F 8% 29.75 in 10.0 mi NW 10.4 mph 16.1 mph N/A   Clear
6:52 PM 84.0 °F 15.1 °F 8% 29.73 in 10.0 mi NNE 3.5 mph - N/A   Clear
7:52 PM 82.9 °F 16.0 °F 8% 29.72 in 10.0 mi NNE 10.4 mph - N/A   Clear
8:52 PM 75.9 °F 19.0 °F 12% 29.73 in 10.0 mi NNE 10.4 mph - N/A   Clear
9:52 PM 69.1 °F 19.9 °F 15% 29.75 in 10.0 mi North 9.2 mph - N/A   Clear
10:52 PM 68.0 °F 21.0 °F 17% 29.76 in 10.0 mi NNW 12.7 mph - N/A   Clear
11:52 PM 60.1 °F 21.0 °F 22% 29.78 in 10.0 mi Calm Calm - N/A   Clear